Station Historical Data
Daily Summary for August 17, 2017 Units:  Metric    English   Both
« Previous Day
Next Day »
Daily Weekly Monthly Yearly Custom
  High: Low: Average:
Temperature: 33 °C 23.1 °C 27.1 °C
Dew Point: 24.4 °C 21.1 °C 22.5 °C
Humidity: 93% 56% 77%
Wind Speed: 3.2km/h 0km/h 0.2km/h
Wind Gust: 9.7km/h - -
Wind- - WSW
Pressure: 1018.5 hPa 1014.8 hPa -
Precipitation: 0 mm    
Historical Graphs
 
 
Tabular Data for August 17, 2017
Time Temperature Dew Point Pressure Wind Wind Speed Wind Gust Humidity Rainfall Rate (Hourly) solar Conditions
00:00 25.3 °C 22.7 °C 1017.8 hPa Calm     86% 0 mm WeatherDisplay:10.37 W/m2 FEW
00:05 25.2 °C 22.7 °C 1017.8 hPa Calm     86% 0 mm WeatherDisplay:10.37 W/m2 FEW
00:10 25.2 °C 22.7 °C 1017.8 hPa Calm     86% 0 mm WeatherDisplay:10.37 W/m2 FEW
00:15 25.1 °C 22.8 °C 1017.8 hPa Calm     87% 0 mm WeatherDisplay:10.37 W/m2 CLR
00:20 25.1 °C 22.6 °C 1017.8 hPa Calm     86% 0 mm WeatherDisplay:10.37 W/m2 CLR
00:25 25.1 °C 22.7 °C 1017.5 hPa Calm     87% 0 mm WeatherDisplay:10.37 W/m2 CLR
00:30 25.1 °C 22.7 °C 1017.8 hPa Calm     87% 0 mm WeatherDisplay:10.37 W/m2 CLR
00:40 25 °C 22.7 °C 1017.8 hPa Calm     87% 0 mm WeatherDisplay:10.37 W/m2 CLR
00:45 24.9 °C 22.6 °C 1017.5 hPa Calm     87% 0 mm WeatherDisplay:10.37 W/m2 CLR
00:50 24.9 °C 22.6 °C 1017.5 hPa Calm     87% 0 mm WeatherDisplay:10.37 W/m2 CLR
00:55 24.9 °C 22.6 °C 1017.5 hPa Calm     87% 0 mm WeatherDisplay:10.37 W/m2 CLR
01:00 24.9 °C 22.6 °C 1017.5 hPa Calm     87% 0 mm WeatherDisplay:10.37 W/m2 CLR
01:05 24.8 °C 22.7 °C 1017.5 hPa Calm     88% 0 mm WeatherDisplay:10.37 W/m2 CLR
01:10 24.8 °C 22.7 °C 1017.5 hPa Calm     88% 0 mm WeatherDisplay:10.37 W/m2 CLR
01:15 24.8 °C 22.7 °C 1017.5 hPa Calm     88% 0 mm WeatherDisplay:10.37 W/m2 CLR
01:20 24.7 °C 22.6 °C 1017.2 hPa Calm     88% 0 mm WeatherDisplay:10.37 W/m2 CLR
01:25 24.7 °C 22.6 °C 1017.2 hPa Calm     88% 0 mm WeatherDisplay:10.37 W/m2 CLR
01:30 24.7 °C 22.6 °C 1017.2 hPa Calm     88% 0 mm WeatherDisplay:10.37 W/m2 CLR
01:35 24.6 °C 22.7 °C 1017.2 hPa Calm     89% 0 mm WeatherDisplay:10.37 W/m2 CLR
01:40 24.6 °C 22.7 °C 1017.2 hPa Calm     89% 0 mm WeatherDisplay:10.37 W/m2 CLR
01:45 24.6 °C 22.7 °C 1016.8 hPa Calm     89% 0 mm WeatherDisplay:10.37 W/m2 CLR
01:50 24.6 °C 22.6 °C 1016.8 hPa Calm     89% 0 mm WeatherDisplay:10.37 W/m2 CLR
01:55 24.6 °C 22.6 °C 1016.8 hPa Calm     89% 0 mm WeatherDisplay:10.37 W/m2 CLR
02:00 24.5 °C 22.6 °C 1016.8 hPa Calm     89% 0 mm WeatherDisplay:10.37 W/m2 CLR
02:05 24.5 °C 22.6 °C 1016.8 hPa Calm     89% 0 mm WeatherDisplay:10.37 W/m2 CLR
02:10 24.5 °C 22.6 °C 1016.8 hPa Calm     89% 0 mm WeatherDisplay:10.37 W/m2 CLR
02:15 24.4 °C 22.5 °C 1016.8 hPa Calm     89% 0 mm WeatherDisplay:10.37 W/m2 CLR
02:20 24.4 °C 22.5 °C 1016.8 hPa Calm     89% 0 mm WeatherDisplay:10.37 W/m2 CLR
02:25 24.4 °C 22.4 °C 1016.8 hPa Calm     89% 0 mm WeatherDisplay:10.37 W/m2 CLR
02:30 24.3 °C 22.6 °C 1016.5 hPa Calm     90% 0 mm WeatherDisplay:10.37 W/m2 CLR
02:35 24.3 °C 22.6 °C 1016.5 hPa Calm     90% 0 mm WeatherDisplay:10.37 W/m2 CLR
02:40 24.3 °C 22.5 °C 1016.5 hPa Calm     90% 0 mm WeatherDisplay:10.37 W/m2 CLR
02:45 24.2 °C 22.4 °C 1016.5 hPa Calm     90% 0 mm WeatherDisplay:10.37 W/m2 CLR
02:50 24.2 °C 22.4 °C 1016.5 hPa Calm     90% 0 mm WeatherDisplay:10.37 W/m2 CLR
02:55 24.1 °C 22.4 °C 1016.5 hPa Calm     90% 0 mm WeatherDisplay:10.37 W/m2 CLR
03:00 24.1 °C 22.4 °C 1016.5 hPa Calm     90% 0 mm WeatherDisplay:10.37 W/m2 CLR
03:05 24.1 °C 22.3 °C 1016.1 hPa Calm     90% 0 mm WeatherDisplay:10.37 W/m2 CLR
03:10 24.1 °C 22.3 °C 1016.5 hPa Calm     90% 0 mm WeatherDisplay:10.37 W/m2 CLR
03:15 24 °C 22.3 °C 1016.5 hPa Calm     90% 0 mm WeatherDisplay:10.37 W/m2 CLR
03:20 23.9 °C 22.2 °C 1016.1 hPa Calm     90% 0 mm WeatherDisplay:10.37 W/m2 CLR
03:25 23.9 °C 22.2 °C 1016.1 hPa Calm     90% 0 mm WeatherDisplay:10.37 W/m2 CLR
03:30 23.9 °C 22.3 °C 1016.1 hPa Calm     91% 0 mm WeatherDisplay:10.37 W/m2 CLR
03:35 23.8 °C 22.3 °C 1015.8 hPa Calm     91% 0 mm WeatherDisplay:10.37 W/m2 CLR
03:40 23.8 °C 22.3 °C 1015.8 hPa Calm     91% 0 mm WeatherDisplay:10.37 W/m2 CLR
03:45 23.8 °C 22.2 °C 1015.8 hPa Calm     91% 0 mm WeatherDisplay:10.37 W/m2 CLR
03:50 23.7 °C 22.2 °C 1016.1 hPa Calm     91% 0 mm WeatherDisplay:10.37 W/m2 CLR
03:55 23.7 °C 22.2 °C 1015.8 hPa Calm     91% 0 mm WeatherDisplay:10.37 W/m2 CLR
04:00 23.7 °C 22.1 °C 1015.8 hPa Calm     91% 0 mm WeatherDisplay:10.37 W/m2 CLR
04:05 23.7 °C 22.1 °C 1015.8 hPa Calm     91% 0 mm WeatherDisplay:10.37 W/m2 CLR
04:10 23.7 °C 22.1 °C 1015.8 hPa Calm     91% 0 mm WeatherDisplay:10.37 W/m2 CLR
04:15 23.7 °C 22.1 °C 1016.1 hPa Calm     91% 0 mm WeatherDisplay:10.37 W/m2 CLR
04:20 23.6 °C 22.1 °C 1016.1 hPa Calm     91% 0 mm WeatherDisplay:10.37 W/m2 CLR
04:25 23.6 °C 22.1 °C 1015.8 hPa Calm     91% 0 mm WeatherDisplay:10.37 W/m2 CLR
04:30 23.6 °C 22.1 °C 1016.1 hPa Calm     91% 0 mm WeatherDisplay:10.37 W/m2 CLR
04:35 23.6 °C 22 °C 1016.1 hPa Calm     91% 0 mm WeatherDisplay:10.37 W/m2 CLR
04:40 23.6 °C 22.2 °C 1016.1 hPa Calm     92% 0 mm WeatherDisplay:10.37 W/m2 CLR
04:45 23.6 °C 22.2 °C 1016.1 hPa Calm     92% 0 mm WeatherDisplay:10.37 W/m2 CLR
04:50 23.5 °C 22.1 °C 1016.1 hPa Calm     92% 0 mm WeatherDisplay:10.37 W/m2 CLR
04:55 23.5 °C 22.1 °C 1016.1 hPa Calm     92% 0 mm WeatherDisplay:10.37 W/m2 CLR
05:00 23.4 °C 22.1 °C 1016.1 hPa Calm     92% 0 mm WeatherDisplay:10.37 W/m2 CLR
05:05 23.4 °C 22.1 °C 1016.1 hPa Calm     92% 0 mm WeatherDisplay:10.37 W/m2 CLR
05:10 23.4 °C 22 °C 1016.1 hPa Calm     92% 0 mm WeatherDisplay:10.37 W/m2 CLR
05:15 23.4 °C 22 °C 1016.1 hPa Calm     92% 0 mm WeatherDisplay:10.37 W/m2 CLR
05:20 23.3 °C 21.9 °C 1016.1 hPa Calm     92% 0 mm WeatherDisplay:10.37 W/m2 CLR
05:30 23.3 °C 21.9 °C 1016.1 hPa Calm     92% 0 mm WeatherDisplay:10.37 W/m2 CLR
05:40 23.3 °C 21.9 °C 1016.5 hPa Calm     92% 0 mm WeatherDisplay:10.37 W/m2 CLR
05:45 23.3 °C 21.9 °C 1016.5 hPa Calm     92% 0 mm WeatherDisplay:10.37 W/m2 CLR
05:50 23.3 °C 21.9 °C 1016.5 hPa Calm     92% 0 mm WeatherDisplay:10.37 W/m2 CLR
05:55 23.2 °C 21.8 °C 1016.8 hPa Calm     92% 0 mm WeatherDisplay:10.37 W/m2 CLR
06:00 23.2 °C 21.8 °C 1016.8 hPa Calm     92% 0 mm WeatherDisplay:10.37 W/m2 CLR
06:05 23.2 °C 21.8 °C 1016.8 hPa Calm     92% 0 mm WeatherDisplay:10.37 W/m2 CLR
06:10 23.2 °C 21.8 °C 1016.8 hPa Calm     92% 0 mm WeatherDisplay:10.37 W/m2 CLR
06:15 23.2 °C 21.8 °C 1016.8 hPa Calm     92% 0 mm WeatherDisplay:10.37 W/m2 CLR
06:20 23.2 °C 21.8 °C 1017.2 hPa Calm     92% 0 mm WeatherDisplay:10.37 W/m2 CLR
06:25 23.2 °C 21.8 °C 1017.2 hPa Calm     92% 0 mm WeatherDisplay:10.37 W/m2 CLR
06:30 23.2 °C 21.8 °C 1017.2 hPa Calm     92% 0 mm WeatherDisplay:10.37 W/m2 CLR
06:35 23.2 °C 21.8 °C 1017.2 hPa Calm     92% 0 mm WeatherDisplay:10.37 W/m2 CLR
06:40 23.1 °C 21.7 °C 1017.2 hPa Calm     92% 0 mm WeatherDisplay:10.37 W/m2 CLR
06:45 23.1 °C 21.7 °C 1017.5 hPa Calm     92% 0 mm WeatherDisplay:10.37 W/m2 CLR
06:50 23.1 °C 21.7 °C 1017.5 hPa Calm     92% 0 mm WeatherDisplay:10.37 W/m2 CLR
06:55 23.1 °C 21.7 °C 1017.5 hPa Calm     92% 0 mm WeatherDisplay:10.37 W/m2 CLR
07:00 23.1 °C 21.7 °C 1017.5 hPa Calm     92% 0 mm WeatherDisplay:10.37 W/m2 CLR
07:10 23.1 °C 21.7 °C 1017.8 hPa Calm     92% 0 mm WeatherDisplay:10.37 W/m2 CLR
07:15 23.1 °C 21.7 °C 1017.8 hPa Calm     92% 0 mm WeatherDisplay:10.37 W/m2 BKN
07:20 23.1 °C 21.9 °C 1017.8 hPa Calm     93% 0 mm WeatherDisplay:10.37 W/m2 BKN
07:25 23.1 °C 21.9 °C 1017.8 hPa Calm     93% 0 mm WeatherDisplay:10.37 W/m2 BKN
07:30 23.1 °C 21.9 °C 1017.8 hPa Calm     93% 0 mm WeatherDisplay:10.37 W/m2 BKN
07:40 23.2 °C 21.9 °C 1017.8 hPa Calm     93% 0 mm WeatherDisplay:10.37 W/m2 BKN
07:45 23.2 °C 22 °C 1017.8 hPa Calm     93% 0 mm WeatherDisplay:10.37 W/m2 BKN
07:50 23.2 °C 22.1 °C 1018.2 hPa Calm     93% 0 mm WeatherDisplay:10.37 W/m2 BKN
07:55 23.3 °C 22.1 °C 1018.2 hPa Calm     93% 0 mm WeatherDisplay:10.37 W/m2 BKN
08:00 23.4 °C 22.2 °C 1018.2 hPa Calm     93% 0 mm WeatherDisplay:10.37 W/m2 BKN
08:05 23.5 °C 22.3 °C 1018.2 hPa Calm     93% 0 mm WeatherDisplay:10.37 W/m2 BKN
08:10 23.6 °C 22.4 °C 1018.2 hPa Calm     93% 0 mm WeatherDisplay:10.37 W/m2 BKN
08:15 23.8 °C 22.6 °C 1018.2 hPa Calm     93% 0 mm WeatherDisplay:10.37 W/m2 SCT
08:20 23.9 °C 22.7 °C 1018.2 hPa Calm     93% 0 mm WeatherDisplay:10.37 W/m2 SCT
08:25 24.1 °C 22.9 °C 1018.2 hPa Calm     93% 0 mm WeatherDisplay:10.37 W/m2 SCT
08:30 24.3 °C 23.1 °C 1018.5 hPa Calm   1.6 km/h 93% 0 mm WeatherDisplay:10.37 W/m2 SCT
08:35 24.4 °C 23.1 °C 1018.5 hPa Calm     92% 0 mm WeatherDisplay:10.37 W/m2 SCT
08:40 24.7 °C 23.1 °C 1018.5 hPa Calm   1.6 km/h 91% 0 mm WeatherDisplay:10.37 W/m2 SCT
08:45 25 °C 23.2 °C 1018.5 hPa WSW 1.6 km/h 4.8 km/h 90% 0 mm WeatherDisplay:10.37 W/m2 SCT
08:50 25.2 °C 23.3 °C 1018.5 hPa Calm   3.2 km/h 89% 0 mm WeatherDisplay:10.37 W/m2 SCT
08:55 25.4 °C 23.3 °C 1018.5 hPa Calm   1.6 km/h 88% 0 mm WeatherDisplay:10.37 W/m2 SCT
09:00 25.6 °C 23.3 °C 1018.5 hPa Calm   3.2 km/h 87% 0 mm WeatherDisplay:10.37 W/m2 SCT
09:10 25.9 °C 23.4 °C 1018.5 hPa Calm   3.2 km/h 86% 0 mm WeatherDisplay:10.37 W/m2 SCT
09:15 26.1 °C 23.5 °C 1018.5 hPa Calm   1.6 km/h 86% 0 mm WeatherDisplay:10.37 W/m2 FEW
09:25 26.3 °C 23.4 °C 1018.5 hPa Calm   1.6 km/h 84% 0 mm WeatherDisplay:10.37 W/m2 FEW
09:30 26.5 °C 23.6 °C 1018.5 hPa Calm   3.2 km/h 84% 0 mm WeatherDisplay:10.37 W/m2 FEW
09:35 26.7 °C 23.6 °C 1018.5 hPa WSW 1.6 km/h 3.2 km/h 83% 0 mm WeatherDisplay:10.37 W/m2 FEW
09:40 26.7 °C 23.4 °C 1018.5 hPa Calm   1.6 km/h 82% 0 mm WeatherDisplay:10.37 W/m2 FEW
09:45 26.8 °C 23.3 °C 1018.5 hPa Calm   3.2 km/h 81% 0 mm WeatherDisplay:10.37 W/m2 FEW
09:50 26.9 °C 23.4 °C 1018.5 hPa Calm   3.2 km/h 81% 0 mm WeatherDisplay:10.37 W/m2 FEW
10:00 27.4 °C 23.6 °C 1018.5 hPa WSW 1.6 km/h 3.2 km/h 80% 0 mm WeatherDisplay:10.37 W/m2 FEW
10:05 27.6 °C 23.4 °C 1018.5 hPa Calm   3.2 km/h 78% 0 mm WeatherDisplay:10.37 W/m2 FEW
10:10 27.7 °C 23.1 °C 1018.5 hPa Calm   3.2 km/h 76% 0 mm WeatherDisplay:10.37 W/m2 FEW
10:15 27.8 °C 23.2 °C 1018.5 hPa Calm   3.2 km/h 76% 0 mm WeatherDisplay:10.37 W/m2 FEW
10:20 27.9 °C 23.1 °C 1018.5 hPa Calm   8 km/h 75% 0 mm WeatherDisplay:10.37 W/m2 FEW
10:25 28.1 °C 22.8 °C 1018.5 hPa WSW 1.6 km/h 3.2 km/h 73% 0 mm WeatherDisplay:10.37 W/m2 FEW
10:30 28.1 °C 23.1 °C 1018.5 hPa Calm   4.8 km/h 74% 0 mm WeatherDisplay:10.37 W/m2 FEW
10:35 28.3 °C 23 °C 1018.5 hPa Calm   3.2 km/h 73% 0 mm WeatherDisplay:10.37 W/m2 FEW
10:40 28.4 °C 23.1 °C 1018.5 hPa Calm   3.2 km/h 73% 0 mm WeatherDisplay:10.37 W/m2 FEW
10:45 28.6 °C 23 °C 1018.5 hPa Calm   1.6 km/h 72% 0 mm WeatherDisplay:10.37 W/m2 FEW
10:50 28.7 °C 22.9 °C 1018.5 hPa Calm   1.6 km/h 71% 0 mm WeatherDisplay:10.37 W/m2 FEW
10:55 28.7 °C 22.7 °C 1018.5 hPa Calm   3.2 km/h 70% 0 mm WeatherDisplay:10.37 W/m2 FEW
11:00 28.6 °C 22.6 °C 1018.2 hPa WSW 1.6 km/h 8 km/h 70% 0 mm WeatherDisplay:10.37 W/m2 FEW
11:10 28.7 °C 22.9 °C 1018.5 hPa SW 1.6 km/h 4.8 km/h 71% 0 mm WeatherDisplay:10.37 W/m2 FEW
11:15 28.7 °C 22.9 °C 1018.2 hPa Calm   4.8 km/h 71% 0 mm WeatherDisplay:10.37 W/m2 SCT
11:20 28.9 °C 23.3 °C 1018.2 hPa Calm   3.2 km/h 72% 0 mm WeatherDisplay:10.37 W/m2 SCT
11:25 29.1 °C 23.3 °C 1018.2 hPa Calm   3.2 km/h 71% 0 mm WeatherDisplay:10.37 W/m2 SCT
11:30 29.3 °C 22.8 °C 1018.2 hPa Calm   8 km/h 68% 0 mm WeatherDisplay:10.37 W/m2 SCT
11:35 29.3 °C 23.1 °C 1018.2 hPa WSW 1.6 km/h 3.2 km/h 69% 0 mm WeatherDisplay:10.37 W/m2 SCT
11:40 29.3 °C 23 °C 1018.2 hPa SSW 1.6 km/h 4.8 km/h 69% 0 mm WeatherDisplay:10.37 W/m2 SCT
11:45 29.4 °C 22.9 °C 1018.2 hPa SSW 1.6 km/h 4.8 km/h 68% 0 mm WeatherDisplay:10.37 W/m2 SCT
11:50 29.4 °C 23.3 °C 1018.2 hPa Calm   8 km/h 70% 0 mm WeatherDisplay:10.37 W/m2 SCT
11:55 29.5 °C 23.4 °C 1018.2 hPa Calm   3.2 km/h 70% 0 mm WeatherDisplay:10.37 W/m2 SCT
12:00 29.7 °C 23.7 °C 1018.2 hPa Calm   1.6 km/h 70% 0 mm WeatherDisplay:10.37 W/m2 SCT
12:10 29.9 °C 23.8 °C 1018.2 hPa Calm   1.6 km/h 70% 0 mm WeatherDisplay:10.37 W/m2 SCT
12:15 29.8 °C 23.7 °C 1018.2 hPa Calm   1.6 km/h 70% 0 mm WeatherDisplay:10.37 W/m2 BKN
12:20 29.9 °C 23.4 °C 1018.2 hPa Calm   1.6 km/h 68% 0 mm WeatherDisplay:10.37 W/m2 BKN
12:25 29.9 °C 23.8 °C 1017.8 hPa Calm     70% 0 mm WeatherDisplay:10.37 W/m2 BKN
12:30 29.9 °C 23.9 °C 1017.8 hPa Calm   4.8 km/h 70% 0 mm WeatherDisplay:10.37 W/m2 BKN
12:40 29.9 °C 23.8 °C 1017.8 hPa Calm   1.6 km/h 70% 0 mm WeatherDisplay:10.37 W/m2 BKN
12:45 29.7 °C 23.6 °C 1017.8 hPa Calm   3.2 km/h 70% 0 mm WeatherDisplay:10.37 W/m2 BKN
12:50 29.5 °C 23.7 °C 1017.8 hPa Calm   1.6 km/h 71% 0 mm WeatherDisplay:10.37 W/m2 BKN
12:55 29.7 °C 23.4 °C 1017.8 hPa Calm   1.6 km/h 69% 0 mm WeatherDisplay:10.37 W/m2 BKN
13:00 29.8 °C 23.5 °C 1017.5 hPa Calm   1.6 km/h 69% 0 mm WeatherDisplay:10.37 W/m2 BKN
13:05 30 °C 23.7 °C 1017.5 hPa Calm   4.8 km/h 69% 0 mm WeatherDisplay:10.37 W/m2 BKN
13:10 30.6 °C 24.1 °C 1017.5 hPa Calm   8 km/h 68% 0 mm WeatherDisplay:10.37 W/m2 BKN
13:15 31 °C 23.9 °C 1017.5 hPa Calm   8 km/h 66% 0 mm WeatherDisplay:10.37 W/m2 BKN
13:20 31.4 °C 23.5 °C 1017.5 hPa SW 1.6 km/h 8 km/h 63% 0 mm WeatherDisplay:10.37 W/m2 BKN
13:25 31.3 °C 23.4 °C 1017.5 hPa WSW 1.6 km/h 9.7 km/h 63% 0 mm WeatherDisplay:10.37 W/m2 BKN
13:30 31.5 °C 24.4 °C 1017.5 hPa Calm   3.2 km/h 66% 0 mm WeatherDisplay:10.37 W/m2 BKN
13:35 31.8 °C 23.4 °C 1017.2 hPa Calm   4.8 km/h 61% 0 mm WeatherDisplay:10.37 W/m2 BKN
13:40 32.3 °C 24.1 °C 1017.2 hPa Calm   1.6 km/h 62% 0 mm WeatherDisplay:10.37 W/m2 BKN
13:45 32.4 °C 23.3 °C 1017.2 hPa Calm   3.2 km/h 59% 0 mm WeatherDisplay:10.37 W/m2 BKN
13:50 32.1 °C 23.4 °C 1017.2 hPa Calm   8 km/h 60% 0 mm WeatherDisplay:10.37 W/m2 BKN
13:55 32.3 °C 23.6 °C 1017.2 hPa West 1.6 km/h 8 km/h 60% 0 mm WeatherDisplay:10.37 W/m2 BKN
14:00 32.4 °C 23.1 °C 1017.2 hPa Calm   8 km/h 58% 0 mm WeatherDisplay:10.37 W/m2 BKN
14:05 32.5 °C 22.6 °C 1017.2 hPa SW 3.2 km/h 8 km/h 56% 0 mm WeatherDisplay:10.37 W/m2 BKN
14:10 32.5 °C 23.2 °C 1017.2 hPa Calm   4.8 km/h 58% 0 mm WeatherDisplay:10.37 W/m2 BKN
14:15 32.9 °C 23.5 °C 1017.2 hPa Calm   1.6 km/h 58% 0 mm WeatherDisplay:10.37 W/m2 BKN
14:20 33 °C 23.6 °C 1017.2 hPa Calm   1.6 km/h 58% 0 mm WeatherDisplay:10.37 W/m2 BKN
14:25 32.6 °C 23 °C 1017.2 hPa SW 1.6 km/h 8 km/h 57% 0 mm WeatherDisplay:10.37 W/m2 BKN
14:30 32.3 °C 23 °C 1016.8 hPa West 1.6 km/h 8 km/h 58% 0 mm WeatherDisplay:10.37 W/m2 BKN
14:35 32.1 °C 23.1 °C 1016.8 hPa WSW 1.6 km/h 4.8 km/h 59% 0 mm WeatherDisplay:10.37 W/m2 BKN
14:40 31.9 °C 22.6 °C 1016.8 hPa WSW 1.6 km/h 8 km/h 58% 0 mm WeatherDisplay:10.37 W/m2 BKN
14:45 31.8 °C 22.5 °C 1016.8 hPa West 1.6 km/h 3.2 km/h 58% 0 mm WeatherDisplay:10.37 W/m2 BKN
14:50 31.6 °C 22.6 °C 1016.8 hPa Calm   3.2 km/h 59% 0 mm WeatherDisplay:10.37 W/m2 BKN
14:55 31.6 °C 22.6 °C 1016.5 hPa West 1.6 km/h 8 km/h 59% 0 mm WeatherDisplay:10.37 W/m2 BKN
15:00 31.4 °C 22.7 °C 1016.5 hPa Calm   3.2 km/h 60% 0 mm WeatherDisplay:10.37 W/m2 BKN
15:05 31.4 °C 23 °C 1016.5 hPa Calm   1.6 km/h 61% 0 mm WeatherDisplay:10.37 W/m2 BKN
15:10 31.3 °C 22.4 °C 1016.1 hPa Calm   3.2 km/h 59% 0 mm WeatherDisplay:10.37 W/m2 BKN
15:15 31.3 °C 22.6 °C 1016.1 hPa WSW 1.6 km/h 8 km/h 60% 0 mm WeatherDisplay:10.37 W/m2 BKN
15:20 31.4 °C 22.9 °C 1016.1 hPa Calm   4.8 km/h 61% 0 mm WeatherDisplay:10.37 W/m2 BKN
15:25 31.5 °C 22.8 °C 1016.1 hPa Calm   3.2 km/h 60% 0 mm WeatherDisplay:10.37 W/m2 BKN
15:30 31.4 °C 23 °C 1016.1 hPa Calm   3.2 km/h 61% 0 mm WeatherDisplay:10.37 W/m2 BKN
15:35 31.3 °C 22.6 °C 1016.1 hPa Calm   3.2 km/h 60% 0 mm WeatherDisplay:10.37 W/m2 BKN
15:40 31.4 °C 22.4 °C 1016.1 hPa Calm   3.2 km/h 59% 0 mm WeatherDisplay:10.37 W/m2 BKN
15:45 31.4 °C 23.3 °C 1015.8 hPa West 1.6 km/h 4.8 km/h 62% 0 mm WeatherDisplay:10.37 W/m2 BKN
15:50 31.4 °C 22.7 °C 1015.8 hPa Calm   1.6 km/h 60% 0 mm WeatherDisplay:10.37 W/m2 BKN
15:55 31.4 °C 22.7 °C 1015.8 hPa Calm   1.6 km/h 60% 0 mm WeatherDisplay:10.37 W/m2 BKN
16:00 31.4 °C 22.4 °C 1015.8 hPa Calm   3.2 km/h 59% 0 mm WeatherDisplay:10.37 W/m2 BKN
16:05 31.3 °C 22.6 °C 1015.8 hPa Calm   3.2 km/h 60% 0 mm WeatherDisplay:10.37 W/m2 BKN
16:10 31.2 °C 22.5 °C 1015.5 hPa Calm   8 km/h 60% 0 mm WeatherDisplay:10.37 W/m2 BKN
16:15 31.1 °C 22.7 °C 1015.5 hPa Calm   4.8 km/h 61% 0 mm WeatherDisplay:10.37 W/m2 BKN
16:20 31.1 °C 22.1 °C 1015.5 hPa Calm   3.2 km/h 59% 0 mm WeatherDisplay:10.37 W/m2 BKN
16:25 31.1 °C 22.1 °C 1015.5 hPa Calm   3.2 km/h 59% 0 mm WeatherDisplay:10.37 W/m2 BKN
16:30 31.1 °C 22.4 °C 1015.5 hPa Calm   1.6 km/h 60% 0 mm WeatherDisplay:10.37 W/m2 BKN
16:40 30.8 °C 21.9 °C 1015.1 hPa Calm   3.2 km/h 59% 0 mm WeatherDisplay:10.37 W/m2 BKN
16:45 30.8 °C 22.7 °C 1015.1 hPa Calm   1.6 km/h 62% 0 mm WeatherDisplay:10.37 W/m2 BKN
16:50 30.8 °C 22.4 °C 1015.1 hPa Calm   1.6 km/h 61% 0 mm WeatherDisplay:10.37 W/m2 BKN
16:55 30.9 °C 22 °C 1015.1 hPa Calm   1.6 km/h 59% 0 mm WeatherDisplay:10.37 W/m2 BKN
17:00 31.1 °C 22.4 °C 1015.1 hPa Calm   1.6 km/h 60% 0 mm WeatherDisplay:10.37 W/m2 BKN
17:10 31.1 °C 22.1 °C 1015.1 hPa Calm   1.6 km/h 59% 0 mm WeatherDisplay:10.37 W/m2 BKN
17:15 31.1 °C 21.9 °C 1015.1 hPa Calm   1.6 km/h 58% 0 mm WeatherDisplay:10.37 W/m2 SCT
17:20 31.3 °C 22.3 °C 1015.1 hPa WNW 1.6 km/h 3.2 km/h 59% 0 mm WeatherDisplay:10.37 W/m2 SCT
17:25 31.3 °C 22.3 °C 1015.1 hPa Calm   1.6 km/h 59% 0 mm WeatherDisplay:10.37 W/m2 SCT
17:30 31.2 °C 22.6 °C 1014.8 hPa Calm   4.8 km/h 60% 0 mm WeatherDisplay:10.37 W/m2 SCT
17:35 31.2 °C 22.2 °C 1014.8 hPa Calm   3.2 km/h 59% 0 mm WeatherDisplay:10.37 W/m2 SCT
17:40 31.1 °C 21.8 °C 1014.8 hPa Calm   1.6 km/h 58% 0 mm WeatherDisplay:10.37 W/m2 SCT
17:45 31.1 °C 21.8 °C 1014.8 hPa Calm   1.6 km/h 58% 0 mm WeatherDisplay:10.37 W/m2 SCT
17:50 30.9 °C 21.1 °C 1014.8 hPa Calm   1.6 km/h 56% 0 mm WeatherDisplay:10.37 W/m2 SCT
17:55 30.8 °C 21.6 °C 1014.8 hPa Calm   1.6 km/h 58% 0 mm WeatherDisplay:10.37 W/m2 SCT
18:00 30.8 °C 21.3 °C 1014.8 hPa WNW 1.6 km/h 3.2 km/h 57% 0 mm WeatherDisplay:10.37 W/m2 SCT
18:05 30.8 °C 21.3 °C 1015.1 hPa NW 1.6 km/h 4.8 km/h 57% 0 mm WeatherDisplay:10.37 W/m2 SCT
18:10 30.7 °C 21.4 °C 1015.1 hPa Calm     58% 0 mm WeatherDisplay:10.37 W/m2 SCT
18:15 30.5 °C 21.6 °C 1015.1 hPa Calm   1.6 km/h 59% 0 mm WeatherDisplay:10.37 W/m2 SCT
18:20 30.3 °C 21.4 °C 1015.1 hPa Calm   1.6 km/h 59% 0 mm WeatherDisplay:10.37 W/m2 SCT
18:25 30.2 °C 21.6 °C 1015.1 hPa Calm   1.6 km/h 60% 0 mm WeatherDisplay:10.37 W/m2 SCT
18:30 30.1 °C 21.7 °C 1014.8 hPa Calm   1.6 km/h 61% 0 mm WeatherDisplay:10.37 W/m2 SCT
18:40 29.7 °C 21.6 °C 1015.1 hPa Calm     62% 0 mm WeatherDisplay:10.37 W/m2 SCT
18:45 29.6 °C 22 °C 1014.8 hPa Calm   1.6 km/h 64% 0 mm WeatherDisplay:10.37 W/m2 SCT
18:50 29.4 °C 22.2 °C 1015.1 hPa Calm   1.6 km/h 65% 0 mm WeatherDisplay:10.37 W/m2 SCT
18:55 29.3 °C 22.1 °C 1015.1 hPa Calm   1.6 km/h 65% 0 mm WeatherDisplay:10.37 W/m2 SCT
19:00 29.2 °C 21.9 °C 1015.1 hPa Calm   3.2 km/h 65% 0 mm WeatherDisplay:10.37 W/m2 SCT
19:05 29.2 °C 21.9 °C 1015.1 hPa Calm     65% 0 mm WeatherDisplay:10.37 W/m2 SCT
19:10 29.2 °C 21.9 °C 1015.1 hPa Calm   1.6 km/h 65% 0 mm WeatherDisplay:10.37 W/m2 SCT
19:15 29.2 °C 21.9 °C 1015.1 hPa Calm   1.6 km/h 65% 0 mm WeatherDisplay:10.37 W/m2 SCT
19:20 29.1 °C 21.6 °C 1014.8 hPa Calm     64% 0 mm WeatherDisplay:10.37 W/m2 SCT
19:25 29.1 °C 21.8 °C 1015.1 hPa Calm     65% 0 mm WeatherDisplay:10.37 W/m2 SCT
19:30 29 °C 22 °C 1015.1 hPa Calm     66% 0 mm WeatherDisplay:10.37 W/m2 SCT
19:35 28.9 °C 21.7 °C 1015.1 hPa Calm   3.2 km/h 65% 0 mm WeatherDisplay:10.37 W/m2 SCT
19:40 28.8 °C 21.6 °C 1015.1 hPa Calm   1.6 km/h 65% 0 mm WeatherDisplay:10.37 W/m2 SCT
19:45 28.8 °C 21.8 °C 1015.1 hPa Calm     66% 0 mm WeatherDisplay:10.37 W/m2 SCT
19:50 28.7 °C 21.7 °C 1015.1 hPa Calm     66% 0 mm WeatherDisplay:10.37 W/m2 SCT
19:55 28.6 °C 21.8 °C 1015.1 hPa Calm     67% 0 mm WeatherDisplay:10.37 W/m2 SCT
20:00 28.4 °C 22.2 °C 1015.1 hPa Calm     69% 0 mm WeatherDisplay:10.37 W/m2 SCT
20:05 28.3 °C 22.3 °C 1015.1 hPa Calm     70% 0 mm WeatherDisplay:10.37 W/m2 SCT
20:10 28.1 °C 22.1 °C 1015.5 hPa Calm     70% 0 mm WeatherDisplay:10.37 W/m2 SCT
20:15 27.9 °C 22.2 °C 1015.5 hPa Calm     71% 0 mm WeatherDisplay:10.37 W/m2 FEW
20:20 27.8 °C 22.1 °C 1015.5 hPa Calm     71% 0 mm WeatherDisplay:10.37 W/m2 FEW
20:25 27.7 °C 22.2 °C 1015.5 hPa Calm     72% 0 mm WeatherDisplay:10.37 W/m2 FEW
20:30 27.6 °C 22.3 °C 1015.5 hPa Calm     73% 0 mm WeatherDisplay:10.37 W/m2 FEW
20:40 27.3 °C 22.1 °C 1015.5 hPa Calm     73% 0 mm WeatherDisplay:10.37 W/m2 FEW
20:45 27.2 °C 22.1 °C 1015.5 hPa Calm     74% 0 mm WeatherDisplay:10.37 W/m2 FEW
20:50 27.1 °C 22 °C 1015.8 hPa Calm     74% 0 mm WeatherDisplay:10.37 W/m2 FEW
20:55 26.9 °C 22.1 °C 1015.8 hPa Calm     75% 0 mm WeatherDisplay:10.37 W/m2 FEW
21:00 26.8 °C 22 °C 1015.8 hPa Calm     75% 0 mm WeatherDisplay:10.37 W/m2 FEW
21:05 26.8 °C 22.2 °C 1015.8 hPa Calm     76% 0 mm WeatherDisplay:10.37 W/m2 FEW
21:10 26.7 °C 22.1 °C 1015.8 hPa Calm     76% 0 mm WeatherDisplay:10.37 W/m2 FEW
21:20 26.4 °C 22.3 °C 1015.8 hPa Calm     78% 0 mm WeatherDisplay:10.37 W/m2 FEW
21:25 26.4 °C 22.2 °C 1015.8 hPa Calm     78% 0 mm WeatherDisplay:10.37 W/m2 FEW
21:30 26.3 °C 22.1 °C 1015.8 hPa Calm     78% 0 mm WeatherDisplay:10.37 W/m2 FEW
21:35 26.2 °C 22.3 °C 1015.8 hPa Calm     79% 0 mm WeatherDisplay:10.37 W/m2 FEW
21:40 26.2 °C 22.2 °C 1016.1 hPa Calm     79% 0 mm WeatherDisplay:10.37 W/m2 FEW
21:45 26.1 °C 22.4 °C 1015.8 hPa Calm     80% 0 mm WeatherDisplay:10.37 W/m2 FEW
21:50 26.1 °C 22.3 °C 1016.1 hPa Calm     80% 0 mm WeatherDisplay:10.37 W/m2 FEW
21:55 25.9 °C 22.2 °C 1015.8 hPa Calm     80% 0 mm WeatherDisplay:10.37 W/m2 FEW
22:00 25.9 °C 22.2 °C 1016.1 hPa Calm     80% 0 mm WeatherDisplay:10.37 W/m2 FEW
22:05 25.9 °C 22.4 °C 1015.8 hPa Calm     81% 0 mm WeatherDisplay:10.37 W/m2 FEW
22:10 25.8 °C 22.3 °C 1016.1 hPa Calm     81% 0 mm WeatherDisplay:10.37 W/m2 FEW
22:15 25.7 °C 22.2 °C 1015.8 hPa Calm     81% 0 mm WeatherDisplay:10.37 W/m2 CLR
22:20 25.7 °C 22.2 °C 1015.8 hPa Calm     81% 0 mm WeatherDisplay:10.37 W/m2 CLR
22:25 25.6 °C 22.1 °C 1015.8 hPa Calm     81% 0 mm WeatherDisplay:10.37 W/m2 CLR
22:30 25.6 °C 22.3 °C 1015.8 hPa Calm     82% 0 mm WeatherDisplay:10.37 W/m2 CLR
22:40 25.4 °C 22.3 °C 1015.8 hPa Calm     83% 0 mm WeatherDisplay:10.37 W/m2 CLR
22:45 25.4 °C 22.3 °C 1015.8 hPa Calm     83% 0 mm WeatherDisplay:10.37 W/m2 CLR
22:50 25.3 °C 22.2 °C 1016.1 hPa Calm     83% 0 mm WeatherDisplay:10.37 W/m2 CLR
23:00 25.3 °C 22.4 °C 1015.8 hPa Calm     84% 0 mm WeatherDisplay:10.37 W/m2 CLR
23:10 25.2 °C 22.3 °C 1016.1 hPa Calm     84% 0 mm WeatherDisplay:10.37 W/m2 CLR
23:25 25.1 °C 22.2 °C 1015.8 hPa Calm     84% 0 mm WeatherDisplay:10.37 W/m2 CLR
23:30 25.1 °C 22.3 °C 1015.8 hPa Calm     85% 0 mm WeatherDisplay:10.37 W/m2 CLR
23:35 25.1 °C 22.3 °C 1015.8 hPa Calm     85% 0 mm WeatherDisplay:10.37 W/m2 CLR
23:40 25 °C 22.3 °C 1015.8 hPa Calm     85% 0 mm WeatherDisplay:10.37 W/m2 CLR
23:45 24.9 °C 22.2 °C 1015.8 hPa Calm     85% 0 mm WeatherDisplay:10.37 W/m2 CLR
23:50 24.9 °C 22.2 °C 1015.8 hPa Calm     85% 0 mm WeatherDisplay:10.37 W/m2 CLR
Piedmont Bend
Compliments of Weather Underground - 4 mb